Location: Hradec Kralove
(50.2170°N, 15.8330°E)
Time: 03:20:07
(UTC+01:00)

N. Korean satellite - Pass Details

Date: 02 December 2022
Orbit: 407 x 442 km, 97.3° (Epoch: 05 February)

Event Time Altitude Azimuth Distance (km) Brightness Sun altitude
Rises 05:42:19 0° 9° (N) 2,531 10.2 -17.3°
Reaches altitude 10° 05:44:25 10° 5° (N) 1,646 9.2 -16.9°
Maximum altitude 05:47:53 55° 287° (WNW) 569 6.5 -16.4°
Drops below altitude 10° 05:51:17 10° 209° (SSW) 1,615 9.1 -15.9°
Sets 05:53:20 0° 205° (SSW) 2,477 10.1 -15.6°
